Terminal Aerodrome Forecast
Issued by NWS Boston, MA

Home | Current Version | Previous Version | Text Only | Print | Product List | Glossary On
Versions: 1 2 3 4 5 6 7 8 9 10 11 12 13 14 15 16 17 18 19 20 21 22 23 24 25 26 27 28 29 30 31 32 33 34 35 36 37 38 39 40
000
FTUS41 KBOX 270844 AAA
TAFPVD
TAF AMD
KPVD 270844Z 2709/2806 22004KT P6SM SCT250
     FM271500 22008KT P6SM SCT050
     FM272100 22010KT P6SM BKN050
     FM280400 27005KT P6SM BKN050=

USA.gov is the U.S. government's official web portal to all federal, state and local government web resources and services.